This demonstration page uses our WeatherBlox Daily Observations layout. Learn more.

Left ArrowRight Arrow

41.86663, -103.66717

Hourly Observations for April 19, 2016

Temp ( °F °C ) Dew Point ( °F °C ) Humidity (%) Winds ( mph kmh ) Pressure ( in mb ) Visibility ( mi km ) Precip ( " mm )
12:53 am 00:53 Mostly Cloudy 39 3.9 36 2.2 89 89 N N/A 30.21 1023 10 16 N/A
1:53 am 01:53 Mostly Clear 34 1.1 32 undefined 92 92 N N/A 30.21 1023 10 16 N/A
2:53 am 02:53 Mostly Cloudy 33 0.6 31 -0.6 92 92 N N/A 30.19 1023 10 16 N/A
3:27 am 03:27 Partly Cloudy 33 0.6 30 -1.1 89 89 NE 3 6 30.24 1024 10 16 N/A
3:53 am 03:53 Clear 33 0.6 30 -1.1 89 89 NNE 5 7 30.19 1022 10 16 N/A
4:28 am 04:28 Mostly Cloudy 32 undefined 30 -1 93 93 NE 3 6 30.27 1025 10 16 N/A
4:53 am 04:53 Partly Cloudy 32 undefined 30 -1.1 92 92 E 3 6 30.19 1023 10 16 N/A
5:53 am 05:53 Clear 31 -0.6 30 -1.1 96 96 N N/A 30.20 1023 10 16 N/A
6:53 am 06:53 Cloudy 34 1.1 32 undefined 92 92 ESE 5 7 30.20 1023 10 16 N/A
7:53 am 07:53 Sunny 38 3.3 35 1.7 89 89 N N/A 30.19 1022 10 16 N/A
8:37 am 08:37 Mostly Sunny 40 4.4 37 2.8 89 89 ESE 8 13 30.21 1023 10 16 N/A
8:53 am 08:53 Sunny 41 5 37 2.8 86 86 SSE 7 11 30.17 1022 10 16 N/A
9:53 am 09:53 Sunny 45 7.2 38 3.3 77 77 SE 10 17 30.16 1021 10 16 N/A
10:53 am 10:53 Sunny 49 9.4 35 1.7 59 59 S 7 11 30.14 1021 N/A N/A
11:53 am 11:53 Mostly Sunny 53 11.7 37 2.8 55 55 undefined N/A 30.13 1020 10 16 N/A
12:53 pm 12:53 Mostly Cloudy 52 11.1 34 1.1 50 50 S 10 17 30.11 1020 10 16 N/A
1:53 pm 13:53 Mostly Sunny 52 11.1 36 2.2 55 55 S 14 22 30.12 1020 10 16 N/A
2:53 pm 14:53 Partly Cloudy 51 10.6 35 1.7 54 54 SSE 10 17 30.12 1020 10 16 N/A
3:53 pm 15:53 Partly Cloudy 52 11.1 35 1.7 53 53 S 10 17 30.10 1019 10 16 N/A
4:53 pm 16:53 Mostly Cloudy 53 11.7 33 0.6 47 47 SSE 8 13 30.08 1019 10 16 N/A
5:53 pm 17:53 Mostly Sunny 53 11.7 32 undefined 45 45 S 5 7 30.08 1019 10 16 N/A
6:53 pm 18:53 Sunny 49 9.4 34 1.1 56 56 ESE 7 11 30.07 1018 10 16 N/A
7:53 pm 19:53 Mostly Cloudy 46 7.8 36 2.2 68 68 ESE 5 7 30.08 1019 10 16 N/A
8:53 pm 20:53 Cloudy 43 6.1 35 1.7 74 74 ESE 3 6 30.09 1019 10 16 N/A
9:53 pm 21:53 Clear 40 4.4 33 0.6 77 77 E 5 7 30.09 1019 10 16 N/A
10:53 pm 22:53 Clear 39 3.9 32 undefined 76 76 N N/A 30.07 1018 10 16 N/A
11:53 pm 23:53 Cloudy 37 2.8 33 0.6 86 86 E 6 9 30.05 1018 10 16 N/A

Powered by AerisWeather